Location: Newark
(34.9500°N, 139.9667°E)
Time: 12:14:56
(UTC+00:00)

deb Explorer IX - Pass Details

Date: 17 December 2019
Orbit: 548 x 1101 km, 38.8° (Epoch: 17 January)

Event Time Altitude Azimuth Distance (km) Brightness Sun altitude
Rises 08:51:54 0° 288° (WNW) 3,330 ? -16.2°
Reaches altitude 10° 08:54:15 10° 287° (WNW) 2,479 ? -16.7°
Maximum altitude 09:00:14 77° 203° (SSW) 975 ? -17.8°
Enters shadow 09:05:36 17° 119° (ESE) 2,304 ? -18.9°
